Temp
-13 -12 -12 -12 -12 -12 -12 -13 -12 -12 -12 -11 -11 -12 -13 -12 -12 -12 -12 -11 -11 -12 -12 -12 -12 -12 -13 -13 -13 -13 -13 -13
-12 -12 -12 -12 -12 -11 -11 -12 -12 -12 -12 -13 -12 -12 -12 -13 -12 -12 -12 -12 -12 -12 -12 -13 -13 -12 -12 -13 -13 -13 -13 -13
-12 -12 -13 -13 -12 -11 -11 -11 -11 -11 -11 -11 -12 -12 -12 -12 -13 -12 -12 -12 -12 -12 -12 -13 -13 -12 -13 -12 -12 -13 -13 -13
-12 -12 -12 -12 -12 -12 -12 -11 -11 -11 -11 -12 -12 -12 -12 -13 -13 -12 -12 -12 -13 -12 -12 -13 -13 -13 -13 -13 -13 -13 -13 -14
-12 -12 -12 -12 -12 -12 -12 -12 -11 -11 -11 -11 -11 -12 -12 -13 -12 -12 -13 -12 -12 -13 -13 -13 -13 -13 -13 -13 -13 -13 -14 -15
-12 -12 -12 -12 -12 -12 -11 -11 -12 -12 -11 -11 -12 -12 -12 -13 -13 -13 -12 -12 -12 -13 -13 -13 -13 -13 -13 -13 -14 -14 -15 -15
-12 -11 -11 -12 -11 -11 -10 -11 -11 -12 -12 -12 -12 -12 -12 -12 -13 -13 -13 -12 -12 -13 -13 -13 -13 -13 -13 -14 -14 -15 -15 -15
-11 -11 -11 -12 -11 -11 -10 -11 -12 -11 -12 -11 -12 -12 -12 -12 -13 -13 -13 -13 -12 -13 -13 -13 -13 -13 -14 -14 -15 -16 -16 -16
-11 -11 -11 -11 -11 -11 -10 -12 -12 -12 -12 -12 -12 -12 -12 -12 -12 -12 -12 -12 -12 -12 -13 -13 -13 -13 -14 -15 -16 -17 -17 -16
-11 -11 -12 -12 -11 -11 -12 -12 -12 -12 -12 -12 -12 -12 -12 -12 -12 -12 -13 -12 -12 -13 -14 -13 -13 -14 -15 -16 -16 -17 -17 -16
-11 -11 -12 -13 -12 -13 -12 -12 -12 -12 -12 -12 -12 -12 -12 -12 -12 -12 -12 -12 -12 -13 -13 -14 -14 -15 -16 -17 -17 -17 -17 -16
-11 -11 -11 -12 -13 -12 -12 -12 -12 -12 -12 -12 -12 -12 -12 -12 -12 -13 -13 -13 -13 -14 -14 -14 -15 -15 -16 -17 -18 -17 -17 -17
-12 -11 -11 -11 -13 -13 -12 -12 -12 -12 -12 -12 -12 -13 -13 -13 -13 -13 -13 -13 -13 -14 -14 -15 -15 -16 -17 -17 -17 -17 -17 -16
-13 -12 -12 -12 -12 -12 -13 -12 -13 -12 -12 -12 -13 -13 -13 -13 -13 -13 -13 -13 -13 -14 -15 -15 -15 -16 -17 -17 -16 -16 -16 -16
-13 -13 -12 -12 -12 -12 -12 -12 -12 -13 -13 -13 -13 -13 -13 -13 -14 -14 -13 -13 -14 -14 -14 -15 -16 -16 -16 -16 -16 -16 -16 -16
-14 -13 -12 -12 -12 -13 -13 -13 -13 -13 -13 -13 -13 -13 -14 -14 -14 -14 -14 -14 -14 -15 -15 -16 -16 -16 -16 -16 -16 -16 -17 -17
-14 -14 -13 -13 -13 -13 -13 -13 -13 -13 -13 -13 -14 -14 -14 -14 -14 -14 -14 -15 -15 -15 -15 -15 -15 -16 -15 -15 -15 -16 -16 -17
-14 -14 -14 -14 -13 -13 -13 -13 -13 -13 -13 -13 -14 -14 -14 -14 -14 -14 -15 -15 -15 -15 -15 -15 -15 -15 -15 -15 -16 -16 -16 -17
-14 -14 -14 -14 -14 -14 -14 -14 -13 -14 -14 -14 -14 -14 -14 -14 -14 -15 -15 -15 -15 -15 -15 -15 -15 -15 -15 -16 -16 -17 -17 -17
-14 -14 -14 -14 -14 -14 -14 -14 -14 -14 -14 -14 -14 -15 -15 -15 -15 -15 -15 -15 -15 -15 -15 -15 -16 -16 -16 -16 -16 -16 -16 -16
Height
5733 5732 5737 5741 5751 5756 5763 5769 5778 5783 5787 5793 5796 5801 5807 5814 5817 5818 5818 5818 5821 5825 5827 5828 5830 5832 5831 5833 5833 5833 5833 5833
5730 5732 5734 5736 5749 5754 5758 5766 5771 5777 5781 5786 5791 5797 5804 5810 5813 5815 5815 5815 5818 5819 5822 5824 5825 5826 5825 5827 5828 5829 5829 5829
5731 5732 5735 5739 5746 5750 5753 5757 5762 5771 5778 5782 5789 5795 5801 5805 5809 5812 5810 5812 5812 5816 5817 5819 5820 5821 5822 5822 5824 5824 5825 5825
5734 5733 5734 5738 5735 5742 5749 5754 5757 5766 5772 5777 5783 5789 5795 5801 5806 5807 5807 5808 5810 5812 5814 5816 5817 5816 5817 5818 5819 5820 5820 5820
5732 5732 5734 5734 5732 5734 5742 5750 5755 5761 5767 5775 5777 5785 5791 5796 5802 5804 5805 5806 5807 5809 5811 5813 5813 5813 5813 5813 5815 5816 5816 5818
5730 5730 5729 5729 5728 5730 5735 5742 5752 5756 5762 5767 5771 5780 5787 5791 5797 5799 5800 5802 5805 5806 5808 5809 5808 5808 5808 5810 5811 5813 5814 5815
5728 5728 5728 5726 5725 5726 5730 5738 5745 5751 5757 5762 5770 5777 5782 5785 5790 5793 5798 5800 5801 5802 5804 5805 5804 5804 5804 5805 5805 5807 5809 5810
5726 5726 5726 5725 5723 5724 5727 5732 5739 5748 5754 5761 5767 5773 5776 5780 5784 5789 5792 5794 5796 5799 5800 5799 5799 5799 5800 5800 5800 5802 5805 5807
5724 5724 5724 5724 5722 5723 5722 5726 5735 5743 5751 5758 5764 5769 5772 5774 5777 5781 5786 5789 5789 5794 5795 5793 5793 5793 5794 5795 5796 5799 5800 5801
5722 5723 5723 5722 5721 5718 5720 5726 5735 5742 5748 5754 5759 5765 5767 5768 5771 5775 5780 5784 5785 5788 5789 5789 5789 5789 5790 5791 5792 5794 5796 5797
5719 5721 5722 5721 5720 5722 5728 5733 5737 5740 5746 5751 5756 5759 5762 5764 5768 5771 5775 5778 5780 5781 5782 5783 5783 5784 5785 5787 5789 5791 5792 5793
5717 5719 5721 5723 5725 5726 5729 5732 5735 5739 5744 5748 5752 5754 5756 5761 5765 5768 5772 5773 5775 5777 5777 5778 5778 5778 5780 5782 5784 5787 5786 5788
5718 5718 5720 5724 5727 5727 5729 5731 5734 5738 5741 5745 5747 5750 5754 5758 5761 5765 5768 5769 5769 5771 5772 5773 5774 5775 5777 5779 5781 5783 5783 5783
5715 5718 5719 5722 5726 5728 5730 5732 5734 5737 5740 5743 5745 5749 5751 5754 5757 5761 5762 5763 5766 5767 5768 5769 5771 5773 5774 5776 5778 5779 5777 5777
5715 5717 5719 5722 5723 5725 5728 5731 5733 5735 5738 5741 5744 5747 5750 5752 5754 5756 5757 5759 5761 5763 5765 5766 5766 5769 5771 5773 5772 5772 5770 5770
5716 5716 5719 5721 5723 5725 5727 5730 5732 5733 5735 5739 5742 5745 5747 5749 5750 5753 5755 5754 5756 5761 5763 5761 5762 5764 5766 5767 5766 5766 5764 5764
5719 5718 5720 5719 5723 5724 5725 5728 5728 5730 5733 5738 5740 5742 5744 5745 5748 5750 5751 5753 5756 5755 5756 5757 5758 5759 5761 5760 5758 5758 5757 5756
5721 5722 5721 5721 5723 5724 5726 5728 5729 5731 5731 5735 5737 5741 5742 5745 5746 5747 5749 5749 5749 5750 5751 5752 5753 5754 5753 5752 5750 5749 5748 5746
5722 5722 5722 5723 5724 5725 5725 5727 5730 5730 5734 5735 5738 5739 5740 5742 5742 5744 5745 5745 5746 5747 5746 5746 5748 5746 5745 5744 5742 5742 5740 5739
5721 5721 5723 5724 5723 5723 5723 5724 5726 5730 5730 5732 5734 5734 5737 5739 5740 5739 5740 5740 5741 5741 5739 5740 5740 5738 5736 5735 5734 5732 5724 5730
Wind_Speed
16 13 22 24 43 34 25 28 29 27 21 27 32 35 31 28 26 22 19 17 16 14 13 13 17 21 23 22 21 21 22 24
13 10 16 23 39 38 35 28 21 25 28 24 32 33 32 29 24 22 20 19 15 11 12 15 18 21 20 19 21 24 24 26
5 9 17 25 31 41 34 38 35 23 29 28 39 34 34 30 28 24 17 18 15 16 16 19 21 20 16 17 22 22 23 21
9 2 10 9 26 38 33 41 38 32 25 34 40 43 37 32 27 24 22 19 18 16 19 22 22 18 17 18 21 24 20 19
4 3 6 11 17 36 46 51 34 32 32 36 43 40 35 30 25 24 21 21 19 16 18 20 20 20 20 18 20 22 20 20
2 4 6 9 13 27 40 45 43 42 39 35 45 43 37 32 30 29 27 26 20 17 16 18 19 23 25 24 21 21 22 23
5 5 4 7 13 22 26 38 37 45 39 40 44 39 42 35 33 32 28 27 25 22 23 25 23 23 26 25 24 24 25 25
7 9 3 5 11 21 24 31 44 43 43 43 45 42 40 40 37 34 31 30 28 28 26 27 28 26 26 26 26 23 24 24
9 10 7 5 7 18 24 27 46 44 46 44 47 41 38 43 38 37 34 32 25 22 26 27 27 25 23 24 23 24 25 24
12 11 11 6 5 15 20 31 40 39 43 44 33 41 42 51 47 33 35 34 30 28 29 28 26 22 20 23 25 25 26 22
12 11 13 7 12 24 31 30 37 27 45 42 36 31 42 44 38 35 33 31 33 28 30 27 26 21 19 20 21 23 20 22
13 12 13 13 15 25 24 26 27 36 39 39 35 21 21 24 24 25 26 27 28 29 25 27 24 22 22 23 24 24 23 25
18 16 15 15 14 17 25 15 23 28 32 31 27 22 26 26 23 24 27 28 27 30 27 23 23 21 20 23 23 23 27 28
14 17 17 18 21 14 15 17 17 22 26 25 27 28 27 28 30 30 31 26 24 28 25 22 18 18 23 25 25 26 30 30
8 11 16 16 22 20 19 14 18 19 23 22 22 28 27 28 30 30 25 22 21 20 19 18 19 20 24 28 29 29 31 32
4 4 8 14 18 17 18 17 19 23 26 28 23 27 24 22 23 19 15 13 13 18 19 20 21 24 29 31 29 29 29 30
3 4 5 8 11 11 11 10 8 7 13 20 25 21 19 16 16 13 12 15 18 18 20 23 26 28 31 32 31 29 30 35
5 5 5 5 7 8 10 9 8 8 9 11 12 13 13 14 13 12 15 16 19 21 22 22 25 27 28 32 31 32 35 37
3 4 6 7 7 7 8 8 9 8 9 10 11 11 10 11 12 14 15 17 19 21 21 24 27 28 31 36 36 38 42 40
6 5 5 7 8 9 8 10 11 12 12 12 12 12 13 14 16 15 16 18 20 23 26 29 32 35 39 37 41 48 41 47
Wind_Direction
270 262 225 209 209 217 215 230 219 224 235 221 212 186 188 203 207 212 219 220 220 232 246 255 259 263 262 263 265 265 264 268
259 249 212 217 206 209 232 224 211 227 216 217 195 183 189 197 207 217 222 219 230 243 254 262 268 270 279 269 267 263 269 263
252 234 233 232 218 214 227 224 224 217 211 212 206 200 199 199 209 216 223 225 236 248 257 261 264 283 287 279 281 271 267 263
128 165 184 205 231 214 235 234 201 235 217 203 203 208 205 201 206 218 220 227 237 243 257 266 266 276 270 284 275 268 258 248
145 164 211 232 216 216 219 216 221 216 225 211 211 201 196 204 210 216 222 231 240 246 254 259 261 265 268 270 266 259 246 242
248 210 241 256 232 215 206 203 217 223 225 215 212 200 207 205 209 218 223 232 236 236 247 262 272 265 262 266 260 255 241 242
207 160 220 241 227 207 198 206 202 203 206 202 197 204 199 215 213 219 224 232 231 234 256 266 274 277 271 264 252 247 243 241
227 200 196 184 226 194 205 209 208 206 207 201 208 206 212 214 212 222 226 232 239 246 252 261 269 274 271 263 245 241 244 244
231 214 181 153 196 212 214 202 207 202 204 215 216 209 206 210 216 221 229 235 244 260 251 263 271 271 264 251 240 241 242 248
217 217 210 138 153 155 178 193 196 209 203 212 210 221 218 224 225 234 234 236 246 256 257 265 265 260 257 246 236 242 247 255
212 212 219 191 120 136 166 190 194 206 209 206 227 238 220 227 236 239 251 247 252 247 255 259 258 254 241 233 237 244 252 254
204 210 212 218 172 160 173 183 194 202 211 222 227 213 221 220 219 226 236 232 231 245 257 256 255 246 233 229 242 245 253 257
198 202 201 210 203 203 175 191 190 199 202 204 205 208 218 218 222 233 237 241 243 246 254 256 260 250 244 247 244 252 256 259
199 199 209 208 201 195 192 206 196 203 201 208 208 215 221 230 228 235 243 251 256 259 258 256 245 237 240 244 251 255 258 262
218 195 199 213 210 208 229 211 213 214 220 222 223 226 234 240 234 243 251 257 258 255 249 237 238 245 249 250 252 254 260 265
96 117 188 204 209 205 221 233 236 234 226 223 226 230 230 243 250 250 234 227 222 229 241 242 249 253 257 258 256 258 262 264
135 139 148 148 173 188 192 208 196 204 211 226 236 235 229 217 210 216 218 223 231 239 248 253 258 263 266 267 267 264 262 262
150 164 170 165 168 170 170 185 175 190 185 187 201 213 214 221 227 233 239 245 247 251 257 264 268 275 280 277 271 270 270 268
175 185 189 186 187 196 193 201 210 212 210 208 215 225 234 243 246 248 252 256 261 269 276 278 275 275 279 276 274 274 274 267
275 230 220 223 210 210 216 217 219 219 218 226 228 232 238 244 250 251 259 269 274 277 276 276 275 274 271 271 273 278 270 271